Location: Asheville, NC
(35.6000°N, 82.5500°W)
Time: 00:25:25
(UTC-04:00)

Envisat - Pass Details

Date: 12 March 2018
Orbit: 764 x 766 km, 98.2° (Epoch: 22 June)

Event Time Altitude Azimuth Distance (km) Brightness Sun altitude
Rises 21:25:32 0° 180° (S) 3,211 6.1 -23.1°
Reaches altitude 10° 21:27:54 10° 186° (S) 2,289 5.4 -23.5°
Maximum altitude 21:32:46 49° 260° (W) 983 3.8 -24.5°
Drops below altitude 10° 21:37:40 10° 335° (NNW) 2,303 6.0 -25.5°
Sets 21:40:04 0° 341° (NNW) 3,233 6.7 -25.9°
